Regional Weather Roundup
Issued by NWS Upton, NY

Current Version | Previous Version | Graphics & Text | Print | Product List | Glossary Off
Versions: 1 2 3 4 5 6 7 8 9 10 11 12 13 14 15 16 17 18 19 20 21 22 23 24 25 26 27

000
ASUS41 KOKX 280509
RWROKX

REGIONAL WEATHER ROUNDUP
NATIONAL WEATHER SERVICE NEW YORK NY
100 AM EDT SUN MAY 28 2017

NOTE: "FAIR" INDICATES FEW OR NO CLOUDS BELOW 12,000 FEET WITH NO
SIGNIFICANT WEATHER AND/OR OBSTRUCTIONS TO VISIBILITY.

NYZ071-072-176-178-NJZ106-104-280600-
NEW YORK CITY METRO AREA

CITY           SKY/WX    TMP DP  RH WIND       PRES   REMARKS
Central Park   CLEAR     60  56  86 CALM      29.93F
Wall St Helipt PTCLDY    61  57  87 NE6       29.92S
Bronx Bot Gard   N/A     59  54  82 E1        29.93S
LaGuardia APRT PTCLDY    62  56  80 SE6       29.90F
Kennedy INTL   PTCLDY    60  58  92 SE6       29.92F
Breezy Point     N/A     57 N/A N/A E5          N/A
Newark/Liberty MOCLDY    62  57  83 E5        29.90F
Teterboro      PTCLDY    62  56  80 CALM      29.90F
$$

NYZ177-179-078>081-280600-
LONG ISLAND NEW YORK

CITY           SKY/WX    TMP DP  RH WIND       PRES   REMARKS
Jones Beach      N/A     57 N/A N/A SE5         N/A
Matinecock PT    N/A     61 N/A N/A CALM        N/A
Farmingdale    CLOUDY    59  57  93 SE7       29.92F
MacArthur/ISP  CLOUDY    59  56  89 S7        29.92F
Shirley        CLOUDY    59  56  89 S7        29.93F
Mt Sinai Harb    N/A    N/A N/A N/A CALM        N/A
Westhampton    CLOUDY    57  52  83 CALM      29.94F
East Hampton   CLOUDY    54  52  91 CALM      29.93F
Montauk          N/A     57  53  86 CALM      29.96R
$$

NYZ052-065-067-280600-
HUDSON VALLEY

CITY           SKY/WX    TMP DP  RH WIND       PRES   REMARKS
White Plains   MOCLDY    60  55  83 CALM      29.91F
Larchmont Harb   N/A     59 N/A N/A E3          N/A
Croton O-T Hud   N/A     61 N/A N/A E1          N/A
Newburgh       CLOUDY    63  59  88 VRB6      29.92S
Montgomery     CLOUDY    61  57  87 CALM      29.90F
Poughkeepsie   CLOUDY    62  57  83 CALM      29.90S
Albany         CLOUDY    62  54  74 CALM      29.89F
$$

NJZ001-105-106-008-010-013-015-019>022-104-280600-
NEW JERSEY

CITY           SKY/WX    TMP DP  RH WIND       PRES   REMARKS
Newark/Liberty MOCLDY    62  57  83 E5        29.90F
Teterboro      PTCLDY    62  56  80 CALM      29.90F
Caldwell       CLOUDY    62  56  80 CALM      29.91F
Somerville     CLEAR     57  55  93 CALM      29.88F
Linden           N/A     61  56  84 CALM      29.91F
Perth Amboy      N/A     59 N/A N/A E6          N/A
Sussex         CLOUDY    60  59  96 CALM      29.92S
Andover          N/A     59  58  96 CALM      29.92R
Trenton        CLEAR     59  56  89 CALM      29.89F
Millville      CLOUDY    62  62 100 CALM      29.91S
Atlantic City  NOT AVBL
Wrightstown    CLOUDY    62  59  89 S6        29.89S
Toms River     CLOUDY    60  57  89 CALM      29.92S
Belmar         PTCLDY    59  58  96 CALM      29.91F
$$

PAZ047>061-062-071-280600-
EASTERN PENNSYLVANIA

CITY           SKY/WX    TMP DP  RH WIND       PRES   REMARKS
Philadelphia   CLOUDY    65  60  84 SW5       29.91F
Allentown      CLEAR     56  52  86 NW5       29.91S
Scranton       CLOUDY    62  56  80 E5        29.92S
$$

CTZ002-004>006-009-010-012-RIZ004-006-007-MAZ004-011-015-280600-
SOUTHERN NEW ENGLAND
 IN CT

CITY           SKY/WX    TMP DP  RH WIND       PRES   REMARKS
Bradley INTL   CLOUDY    59  54  83 S7        29.92F
Hartford       CLOUDY    58  53  84 S6        29.92F
Danbury        CLOUDY    57  56  96 S3        29.94F
Wtrbury/Oxford   N/A     55  50  82 CALM      29.94F
Bridgeport     CLOUDY    60  55  83 E5        29.92F
Meriden        CLOUDY    55  54  96 CALM      29.93F
New Haven      CLOUDY    57  54  89 SE5       29.92F
Chester        CLOUDY    55  54  94 CALM      29.93F
Groton         CLOUDY    55  52  89 E3        29.93F
Wilimantic     CLOUDY    58  55  90 CALM      29.93F

 IN RI

CITY           SKY/WX    TMP DP  RH WIND       PRES   REMARKS
Providence     CLOUDY    57  53  86 S7        29.94F
Block Island   MOCLDY    52  50  93 CALM      29.96R
Westerly       CLOUDY    54  52  93 CALM      29.95S
 IN MA

CITY           SKY/WX    TMP DP  RH WIND       PRES   REMARKS
Boston         MOCLDY    55  52  89 SE8       29.93F
Worcester      CLOUDY    57  51  80 W8        29.93F
Westfield      CLOUDY    59  56  89 S3        29.91
Provincetown   PTCLDY    53  48  83 S6        29.96F
Nantucket      PTCLDY    47  44  90 CALM      29.96F
$$

ANZ330-335-338-340-345-350-353-355-280600-
COASTAL MARINE OBSERVATIONS


STATION/POSITION TIME  SKY/WX   TEMP    WIND        PRES    VSBY  WAVE
                                AIR SEA DIR/SP/G                  HT/PER
                 (UTC)          (F)     (DEG/KT/KT) (MB)    (MI)  (FT/S)
NY HARB ENTRANCE 0350            59 58  140/  8/ 10 1012.9          2/ 8
20 S FIRE ISLAND 0450            57 57  160/ 10/ 10 1012.9          2/ 8
GREAT SOUTH BAY  NOT AVBL
23 SSW MONTAUK P 0350            56 55              1014.2          2/ 8
15 E BARNEGAT LI 0430               59                N/A           2/ 8
HUDSON CANYON    0350            57 56   90/  6/  6 1013.9          2/ 8
KINGS POINT      0436            60 59  180/  1/  4 1012.8
EXECUTION ROCKS  0445            60                   N/A
CENTRAL LI SOUND 0415            56      CALM  /  2   N/A           1
EASTERN LI SOUND NOT AVBL
ROBBINS REEF     0436            61     120/  8/  8 1013.4
$$


>>>>>>>>>>>>>>>>>>>>>>>>>>>> KEY <<<<<<<<<<<<<<<<<<<<<<<<<<<
>                                                          <
>     SKY/WX - Sky Condition/Present Weather               <
>     TMP    - Temperature in Fahrenheit                   <
>     DP     - Dew Point in Fahrenheit                     <
>     RH     - Relative Humidity in Percent                <
>     WIND   - Direction (from) and Speed in MPH           <
>     PRES   - Mean Sea Level Pressure (inches of Hg)      <
>     WCI    - Wind Chill Index                            <
>     VSB    - VISIBILITY IN MILES                         <
>     HX     - HEAT INDEX                                  <
>     TC     - TEMPERATURE IN CELSIUS                      <
>     VRB    - VARIABLE WIND DIRECTION                     <
>                                                          <
>>>>>>>>>>>>>>>>>>>>>>>>>>>> KEY <<<<<<<<<<<<<<<<<<<<<<<<<<<




USA.gov is the U.S. government's official web portal to all federal, state and local government web resources and services.